Overview Statistics Trail Chart Weather Telemetry Raw packets
 

This is the latest recevied weather packets stored in our database for station/object KD5FHA. If no packets are shown the sender has not sent any weather packets the latest 10 day(s).

<< 102 103 104 105 106 107 108 >>
Time Temp. Humidity Pressure Rain* Wind** Luminosity Snow
1787841408 31.11° C 64% 1016.6 hPa 0 mm - 251 W/m² -
1787841102 30.56° C 65% 1016.7 hPa 0 mm - 118 W/m² -
1787840799 30.56° C 66% 1016.5 hPa 0 mm - 70 W/m² -
1787840493 30.56° C 66% 1016.6 hPa 0 mm - 68 W/m² -
1787840189 30° C 66% 1016.6 hPa 0 mm - 68 W/m² -
1787839888 30° C 67% 1016.7 hPa 0 mm - 72 W/m² -
1787839584 29.44° C 67% 1016.4 hPa 0 mm - 65 W/m² -
1787839283 29.44° C 68% 1016.5 hPa 0 mm - 63 W/m² -
1787838978 29.44° C 68% 1016.4 hPa 0 mm - 62 W/m² -
1787838671 29.44° C 68% 1016.8 hPa 0 mm - 61 W/m² -
1787838370 28.89° C 67% 1016.5 hPa 0 mm - 58 W/m² -
1787838069 28.89° C 68% 1016.5 hPa 0 mm - 56 W/m² -
1787837769 28.33° C 67% 1016.5 hPa 0 mm - 55 W/m² -
1787837464 28.33° C 68% 1016.7 hPa 0 mm - 54 W/m² -
1787837159 27.78° C 68% 1016.5 hPa 0 mm - 52 W/m² -
1787836858 27.78° C 69% 1016.4 hPa 0 mm - 51 W/m² -
1787836554 27.22° C 70% 1016.5 hPa 0 mm - 48 W/m² -
1787836253 27.22° C 71% 1016.5 hPa 0 mm - 46 W/m² -
1787835949 26.67° C 71% 1016.4 hPa 0 mm - 43 W/m² -
1787835649 26.67° C 72% 1016.3 hPa 0 mm - 41 W/m² -
1787835343 26.67° C 72% 1016.3 hPa 0 mm - 38 W/m² -
1787835039 26.67° C 73% 1016.2 hPa 0 mm - 36 W/m² -
1787834738 26.11° C 73% 1016.2 hPa 0 mm - 33 W/m² -
1787834433 26.11° C 74% 1016.1 hPa 0 mm - 29 W/m² -
1787834129 26.11° C 74% 1016.1 hPa 0 mm - 26 W/m² -

* Rain latest hour (hover to see other rain measurements)
** Current wind speed in m/s (hover to see current wind gust speed)